Henderson, NV

9:55 AM PDT on March 28, 2017 (GMT -0700)
Henderson

Weather History for KHND - April, 2013

Change the Weather History Date:

Tuesday, April 23, 2013

  Actual Average (KLAS) Record (KLAS)
Temperature  
Mean Temperature 66 °F -  
Max Temperature 75 °F 80 °F 98 °F (1949)
Min Temperature 55 °F 53 °F 36 °F (1937)
Growing Degree Days 16 (Base 50)    
Moisture  
Dew Point 12 °F    
Average Humidity 14    
Maximum Humidity 20    
Minimum Humidity 7    
Precipitation  
Precipitation 0.00 in - - ()
Sea Level Pressure  
Sea Level Pressure 29.97 in    
Wind  
Wind Speed 15 mph (NE)    
Max Wind Speed 23 mph    
Max Gust Speed 31 mph    
Visibility 10 miles    
Events      
Averages and records for this station are not official NWS values.
T = Trace of Precipitation, MM = Missing Value Source: NWS Daily Summary

Daily Weather History Graph

Daily Weather History Graph

Search for Another Location

Airport or City:

Trip Planner

Search our weather history database for the weather conditions in past years. The results will help you decide how hot, cold, wet, or windy it might be!

Date:

Astronomy

Apr. 23, 2013 Rise Set
Actual Time 5:56 AM PDT 7:21 PM PDT
Civil Twilight 5:29 AM PDT 7:48 PM PDT
Nautical Twilight 4:57 AM PDT 8:20 PM PDT
Astronomical Twilight 4:24 AM PDT 8:54 PM PDT
Moon 5:23 PM PDT (4/23) 4:23 AM PDT (4/23)
Length of Visible Light 14h 18m
Length of Day
13h 24m
Waxing Gibbous, 94% of the Moon is Illuminated
Apr 23
Waxing Gibbous
Apr 25
Full
May 2
Last Quarter
May 9
New
May 17
First Quarter

Hourly Weather History & Observations

Time (PDT) Temp. Dew Point Humidity Pressure Visibility Wind Dir Wind Speed Gust Speed Precip Events Conditions
12:14 AM 75.2 °F 17.6 °F 11% 29.84 in 10.0 mi ENE 16.1 mph 21.9 mph N/A   Clear
12:56 AM 70.0 °F 25.2 °F 19% 29.82 in 10.0 mi NE 19.6 mph 25.3 mph N/A   Clear
1:56 AM 65.8 °F 22.1 °F 19% 29.85 in 10.0 mi NE 16.1 mph 26.5 mph N/A   Clear
2:56 AM 63.9 °F 20.1 °F 19% 29.88 in 10.0 mi ENE 15.0 mph 20.7 mph N/A   Clear
3:56 AM 61.0 °F 16.2 °F 18% 29.93 in 10.0 mi NE 19.6 mph - N/A   Clear
4:56 AM 59.0 °F 14.0 °F 17% 29.97 in 10.0 mi NE 19.6 mph 23.0 mph N/A   Clear
5:56 AM 56.8 °F 13.1 °F 18% 30.00 in 10.0 mi NE 18.4 mph 26.5 mph N/A   Clear
6:56 AM 56.8 °F 15.1 °F 19% 30.05 in 10.0 mi NNE 23.0 mph 27.6 mph N/A   Clear
7:56 AM 57.9 °F 16.2 °F 20% 30.09 in 10.0 mi NNE 19.6 mph 27.6 mph N/A   Clear
8:56 AM 59.0 °F 14.0 °F 17% 30.11 in 10.0 mi NNE 21.9 mph 31.1 mph N/A   Clear
9:56 AM 61.9 °F 13.1 °F 15% 30.11 in 10.0 mi NE 18.4 mph - N/A   Clear
10:56 AM 63.9 °F 13.1 °F 14% 30.10 in 10.0 mi NNE 16.1 mph 20.7 mph N/A   Clear
11:56 AM 65.8 °F 11.1 °F 12% 30.07 in 10.0 mi NE 11.5 mph - N/A   Clear
12:56 PM 68.0 °F 9.1 °F 10% 30.05 in 10.0 mi NNE 11.5 mph 21.9 mph N/A   Clear
1:56 PM 68.9 °F 10.0 °F 10% 30.03 in 10.0 mi NNE 13.8 mph - N/A   Clear
2:56 PM 70.9 °F 9.1 °F 9% 30.01 in 10.0 mi NE 9.2 mph - N/A   Clear
3:56 PM 72.9 °F 7.2 °F 8% 29.97 in 10.0 mi NNE 10.4 mph - N/A   Clear
4:56 PM 73.9 °F 6.1 °F 7% 29.94 in 10.0 mi NE 10.4 mph - N/A   Clear
5:56 PM 72.9 °F 4.1 °F 7% 29.93 in 10.0 mi NE 8.1 mph - N/A   Clear
6:56 PM 70.9 °F 3.0 °F 7% 29.92 in 10.0 mi NE 5.8 mph - N/A   Clear
7:56 PM 66.9 °F 7.2 °F 10% 29.93 in 10.0 mi Calm Calm - 0.00 in   Clear
8:56 PM 63.0 °F 11.1 °F 13% 29.95 in 10.0 mi Calm Calm - N/A   Clear
9:56 PM 59.0 °F 4.1 °F 11% 29.94 in 10.0 mi SSW 6.9 mph - N/A   Clear
10:56 PM 56.8 °F 10.0 °F 16% 29.94 in 10.0 mi SSE 8.1 mph - N/A   Clear
11:56 PM 55.9 °F 10.0 °F 16% 29.93 in 10.0 mi SSE 6.9 mph - N/A   Clear